Location: Unspecified
(0.0000°N, 0.0000°E)
Time: 23:07:13
(UTC+00:00)

X-37B - Pass Details

Date: 27 October 2020
Orbit: 382 x 392 km, 45.0° (Epoch: 15 October)

Event Time Altitude Azimuth Distance (km) Brightness Sun altitude
Exits shadow 04:17:10 11° 188° (S) 1,370 3.4 -21.1°
Maximum altitude 04:19:42 24° 133° (SE) 852 2.9 -20.5°
Drops below altitude 10° 04:22:18 10° 77° (ENE) 1,400 4.3 -19.9°
Sets 04:24:37 0° 62° (ENE) 2,253 5.2 -19.3°
